EN

Hourly Weather Novovasylivka

Today, 18 April, Sunday

Time Temperature Precipitation Wind Pressure Humidity
00:00 +8°C° 0 mm 1 mps 754 mmHg 70%
01:00 +8°C° 0 mm 1 mps 754 mmHg 71%
02:00 +7°C° 0 mm 1 mps 754 mmHg 74%
03:00 +7°C° 0 mm 1 mps 754 mmHg 77%
04:00 +7°C° 0 mm 1 mps 754 mmHg 79%
05:00 +6°C° 0 mm 1 mps 754 mmHg 82%
06:00 +8°C° 0 mm 1 mps 754 mmHg 75%
07:00 +8°C° 0 mm 0 mps 754 mmHg 69%
08:00 +10°C° 0 mm 0 mps 754 mmHg 63%
09:00 +12°C° 0 mm 1 mps 754 mmHg 57%
10:00 +13°C° 0 mm 1 mps 753 mmHg 51%
11:00 +14°C° 0 mm 2 mps 753 mmHg 45%
12:00 +15°C° 0 mm 2 mps 753 mmHg 42%
13:00 +16°C° 0 mm 3 mps 753 mmHg 40%
14:00 +16°C° 0 mm 3 mps 753 mmHg 38%
15:00 +16°C° 0 mm 3 mps 753 mmHg 41%
16:00 +14°C° 0 mm 3 mps 753 mmHg 43%
17:00 +14°C° 0 mm 3 mps 753 mmHg 46%
18:00 +14°C° 0 mm 2 mps 753 mmHg 50%
19:00 +13°C° 0 mm 2 mps 753 mmHg 55%
20:00 +12°C° 0 mm 1 mps 753 mmHg 60%
21:00 +10°C° 0 mm 2 mps 753 mmHg 62%
22:00 +10°C° 0 mm 2 mps 753 mmHg 64%
23:00 +10°C° 0 mm 2 mps 753 mmHg 66%

Tomorrow, 19 April, Monday

Time Temperature Precipitation Wind Pressure Humidity
00:00 +9°C° 0 mm 2 mps 753 mmHg 68%
01:00 +9°C° 0 mm 2 mps 753 mmHg 71%
02:00 +9°C° 0 mm 2 mps 753 mmHg 73%
03:00 +8°C° 0 mm 2 mps 753 mmHg 75%
04:00 +8°C° 0 mm 2 mps 753 mmHg 76%
05:00 +8°C° 0 mm 2 mps 753 mmHg 78%
06:00 +9°C° 0 mm 2 mps 753 mmHg 74%
07:00 +9°C° 0 mm 2 mps 753 mmHg 71%
08:00 +10°C° 0 mm 3 mps 753 mmHg 67%
09:00 +12°C° 0 mm 2 mps 753 mmHg 63%
10:00 +14°C° 0 mm 2 mps 752 mmHg 58%
11:00 +15°C° 0 mm 2 mps 752 mmHg 54%
12:00 +15°C° 0.1 mm 2 mps 752 mmHg 52%
13:00 +15°C° 0.1 mm 2 mps 752 mmHg 51%
14:00 +16°C° 0.1 mm 2 mps 751 mmHg 50%
15:00 +15°C° 0 mm 2 mps 751 mmHg 52%
16:00 +15°C° 0 mm 2 mps 751 mmHg 54%
17:00 +14°C° 0 mm 3 mps 751 mmHg 56%
18:00 +13°C° 0 mm 3 mps 751 mmHg 58%
19:00 +12°C° 0 mm 3 mps 750 mmHg 60%
20:00 +11°C° 0 mm 3 mps 750 mmHg 61%
21:00 +11°C° 0 mm 3 mps 750 mmHg 62%
22:00 +10°C° 0 mm 3 mps 749 mmHg 63%
23:00 +10°C° 0 mm 3 mps 749 mmHg 63%

Day after tomorrow, 20 April, Tuesday

Time Temperature Precipitation Wind Pressure Humidity
00:00 +10°C° 0 mm 4 mps 748 mmHg 64%
01:00 +8°C° 0 mm 4 mps 747 mmHg 65%
02:00 +8°C° 0 mm 5 mps 747 mmHg 66%
03:00 +8°C° 0.4 mm 5 mps 746 mmHg 71%
04:00 +8°C° 0.4 mm 5 mps 746 mmHg 76%
05:00 +7°C° 0.4 mm 5 mps 745 mmHg 81%
06:00 +7°C° 1.7 mm 6 mps 744 mmHg 85%
07:00 +6°C° 1.7 mm 7 mps 743 mmHg 88%
08:00 +6°C° 1.7 mm 7 mps 742 mmHg 92%
09:00 +6°C° 3 mm 7 mps 741 mmHg 93%
10:00 +7°C° 3 mm 6 mps 741 mmHg 93%
11:00 +7°C° 3 mm 6 mps 740 mmHg 94%
12:00 +8°C° 1.2 mm 5 mps 740 mmHg 94%
13:00 +8°C° 1.2 mm 5 mps 739 mmHg 94%
14:00 +8°C° 1.2 mm 4 mps 739 mmHg 94%
15:00 +8°C° 0.8 mm 5 mps 739 mmHg 93%
16:00 +8°C° 0.8 mm 6 mps 739 mmHg 91%
17:00 +6°C° 0.8 mm 7 mps 739 mmHg 90%
18:00 +6°C° 0.3 mm 7 mps 740 mmHg 89%
19:00 +6°C° 0.3 mm 8 mps 740 mmHg 89%
20:00 +6°C° 0.3 mm 9 mps 741 mmHg 88%
21:00 +6°C° 0.2 mm 8 mps 742 mmHg 87%
22:00 +6°C° 0.2 mm 8 mps 743 mmHg 85%
23:00 +6°C° 0.2 mm 8 mps 744 mmHg 84%

21 April, Wednesday

Time Temperature Precipitation Wind Pressure Humidity
00:00 +5°C° 0 mm 7 mps 745 mmHg 83%
01:00 +5°C° 0 mm 7 mps 746 mmHg 83%
02:00 +4°C° 0 mm 6 mps 747 mmHg 83%
03:00 +3°C° 0 mm 5 mps 748 mmHg 84%
04:00 +3°C° 0 mm 5 mps 749 mmHg 85%
05:00 +3°C° 0 mm 4 mps 749 mmHg 86%
06:00 +4°C° 0 mm 4 mps 750 mmHg 80%
07:00 +6°C° 0 mm 5 mps 750 mmHg 74%
08:00 +7°C° 0 mm 6 mps 751 mmHg 67%
09:00 +8°C° 0 mm 5 mps 751 mmHg 63%
10:00 +9°C° 0 mm 5 mps 752 mmHg 58%
11:00 +10°C° 0 mm 5 mps 752 mmHg 53%
12:00 +12°C° 0 mm 5 mps 752 mmHg 51%
13:00 +12°C° 0 mm 5 mps 753 mmHg 50%
14:00 +13°C° 0 mm 4 mps 753 mmHg 48%
15:00 +13°C° 0 mm 4 mps 753 mmHg 51%
16:00 +12°C° 0 mm 3 mps 753 mmHg 54%
17:00 +13°C° 0 mm 2 mps 753 mmHg 57%
18:00 +12°C° 0 mm 2 mps 754 mmHg 61%
19:00 +12°C° 0 mm 2 mps 754 mmHg 65%
20:00 +10°C° 0 mm 2 mps 755 mmHg 69%
21:00 +10°C° 0.1 mm 2 mps 755 mmHg 72%
22:00 +9°C° 0.1 mm 2 mps 755 mmHg 75%
23:00 +9°C° 0.1 mm 2 mps 755 mmHg 78%

22 April, Thursday

Time Temperature Precipitation Wind Pressure Humidity
00:00 +9°C° 0.1 mm 2 mps 755 mmHg 80%
01:00 +8°C° 0.1 mm 2 mps 755 mmHg 82%
02:00 +8°C° 0.1 mm 2 mps 755 mmHg 84%
03:00 +7°C° 0 mm 2 mps 756 mmHg 86%
04:00 +7°C° 0 mm 2 mps 756 mmHg 89%
05:00 +5°C° 0 mm 3 mps 756 mmHg 91%
06:00 +8°C° 0 mm 3 mps 756 mmHg 87%
07:00 +9°C° 0 mm 3 mps 756 mmHg 82%
08:00 +10°C° 0 mm 3 mps 756 mmHg 78%
09:00 +11°C° 0 mm 4 mps 757 mmHg 72%
10:00 +13°C° 0 mm 4 mps 757 mmHg 66%
11:00 +14°C° 0 mm 4 mps 757 mmHg 60%
12:00 +14°C° 0.2 mm 4 mps 757 mmHg 56%
13:00 +15°C° 0.2 mm 5 mps 756 mmHg 53%
14:00 +16°C° 0.2 mm 5 mps 756 mmHg 49%
15:00 +15°C° 0.2 mm 5 mps 756 mmHg 54%
16:00 +14°C° 0.2 mm 4 mps 756 mmHg 59%
17:00 +14°C° 0.2 mm 4 mps 756 mmHg 64%
18:00 +13°C° 0 mm 4 mps 756 mmHg 69%
19:00 +11°C° 0 mm 3 mps 757 mmHg 74%
20:00 +10°C° 0 mm 3 mps 757 mmHg 79%
21:00 +10°C° 0 mm 3 mps 757 mmHg 81%
22:00 +9°C° 0 mm 3 mps 757 mmHg 84%
23:00 +9°C° 0 mm 3 mps 757 mmHg 86%

23 April, Friday

Time Temperature Precipitation Wind Pressure Humidity
00:00 +8°C° 0 mm 3 mps 757 mmHg 88%
01:00 +8°C° 0 mm 3 mps 757 mmHg 89%
02:00 +7°C° 0 mm 2 mps 757 mmHg 90%
03:00 +7°C° 0 mm 2 mps 757 mmHg 91%
04:00 +7°C° 0 mm 2 mps 757 mmHg 91%
05:00 +7°C° 0 mm 2 mps 757 mmHg 92%
06:00 +8°C° 0 mm 3 mps 757 mmHg 85%
07:00 +10°C° 0 mm 3 mps 757 mmHg 78%
08:00 +12°C° 0 mm 4 mps 757 mmHg 71%
09:00 +13°C° 0 mm 4 mps 757 mmHg 66%
10:00 +14°C° 0 mm 4 mps 757 mmHg 60%
11:00 +17°C° 0 mm 4 mps 757 mmHg 55%
12:00 +17°C° 0.1 mm 4 mps 756 mmHg 52%
13:00 +18°C° 0.1 mm 4 mps 756 mmHg 49%
14:00 +18°C° 0.1 mm 4 mps 756 mmHg 46%
15:00 +18°C° 0 mm 4 mps 755 mmHg 48%
16:00 +17°C° 0 mm 3 mps 755 mmHg 51%
17:00 +17°C° 0 mm 3 mps 755 mmHg 53%
18:00 +16°C° 0 mm 3 mps 755 mmHg 57%
19:00 +13°C° 0 mm 3 mps 755 mmHg 61%
20:00 +12°C° 0 mm 3 mps 755 mmHg 65%
21:00 +11°C° 0 mm 3 mps 755 mmHg 69%
22:00 +11°C° 0 mm 3 mps 755 mmHg 72%
23:00 +10°C° 0 mm 3 mps 755 mmHg 76%
Show more

We Need Your Consent

Meteoprog and our Service Providers may store and access personal data such as cookies, device identifiers or other similar technologies on your device and process such data to personalise content and ads, as well as provide social media features and to analyse the traffic.

  • Store and/or access information on your device

    Cookies, device identifiers or other information can be stored or accessed on your device for the purposes indicated above.

  • Personalised ads and content, ad and content measurement, audience insights, and products development

    Ads and content can be personalised based on a profile. More data can be added to better personalise ads and content. Ad and content performance can be measured. Insights about the audience who saw the ads and content can be derived. Such data can be used to develop or improve user’s experience, systems and software.

By clicking ‘I Agree’ you will allow the use of indicated cookies, device identifiers, web beacons or other similar technologies. Your settings can be changed in the browser on your device.

For certain purposes, legitimate interests may be relied on, rather than consent. You can read more about this in our Privacy and Cookie Policy.